#timestamp,LO_Frequency,Hit,StdDev 
1621875615.4,286047000.1,N
1621875635.2,286047000.9,N
1621875655.1,286046999.0,N
1621875656.0,286046999.0,N
1621875675.8,286046998.3,N
1621875695.7,286047000.7,N
1621875715.5,286046998.6,N
1621875735.3,286047000.6,N
1621875755.2,286046998.7,N
1621875775.0,286047000.5,N
1621875775.9,286047000.5,N
1621875795.7,286047002.0,N
1621875815.6,286047001.9,N
1621875835.4,286047001.6,N
1621875855.3,286046996.7,N
1621875875.1,286046996.7,N
1621875876.0,286046996.7,N
1621875895.8,286046999.5,N
1621875915.7,286046998.8,N
1621875935.5,286046998.5,N
1621875955.4,286046999.7,N
1621875975.2,286047002.4,N
1621875995.0,286047002.7,N
1621875995.9,286047002.7,N
1621876015.8,286047004.4,N
1621876035.6,286047000.4,N
1621876055.4,286047000.4,N
1621876075.3,286046998.4,N
1621876095.1,286046999.5,N
1621876115.9,286047000.2,N
1621876135.7,286047002.7,N
1621876155.5,286047001.1,N
1621876175.4,286047001.8,N
1621876195.2,286047002.8,N
1621876215.1,286047000.1,N
1621876216.0,286047000.1,N
1621876235.8,286046997.0,N
1621876255.6,286047000.3,N
1621876275.5,286047000.1,N
1621876295.3,286047002.6,N
1621876315.1,286047002.5,N
1621876335.9,286047000.2,N
1621876355.7,286047004.3,N
1621876375.6,286047000.6,N
1621876395.4,286047000.7,N
1621876415.2,286047002.8,N
1621876435.1,286047002.0,N
1621876436.0,286047002.0,N
1621876455.8,286047002.8,N
1621876475.7,286047002.3,N
1621876495.5,286046999.8,N
1621876515.3,286046999.2,N
1621876535.2,286047001.1,N
1621876555.9,286047001.2,N
1621876575.7,286046998.2,N
1621876595.6,286047001.8,N
1621876615.4,286047004.3,N
1621876635.2,286047004.2,N
1621876655.1,286047003.7,N
1621876656.0,286047003.7,N
1621876675.8,286047002.6,N
1621876695.7,286047001.7,N
1621876715.5,286047000.9,N
1621876735.3,286047000.7,N
1621876755.2,286047002.3,N
1621876775.0,286047000.3,N
1621876775.9,286047000.3,N
1621876795.8,286046999.9,N
1621876815.6,286046998.2,N
1621876835.4,286047000.6,N
1621876855.3,286047001.7,N
1621876875.1,286047001.8,N
1621876895.8,286046998.1,N
1621876915.7,286047000.3,N
1621876935.5,286047002.8,N
1621876955.4,286046998.5,N
1621876975.2,286047000.9,N
1621876995.0,286047002.4,N
1621876995.9,286047002.4,N
1621877015.8,286047002.7,N
1621877035.6,286047004.4,N
1621877055.4,286047003.3,N
1621877075.3,286047006.0,Y
1621877095.1,286047000.8,P
1621877115.9,286047000.5,N
1621877135.7,286047000.2,N
1621877155.5,286046999.9,N
1621877175.4,286047000.0,N
1621877195.2,286046999.8,N
1621877215.1,286047000.6,N
1621877216.0,286047000.6,N
1621877235.8,286047000.9,N
1621877255.6,286047002.4,Y
1621877275.5,286047001.0,P
1621877295.3,286046999.7,N
1621877315.1,286047003.7,P
1621877335.9,286047001.4,N
1621877355.7,286047001.6,N
1621877375.6,286047000.1,N
1621877395.4,286047001.7,N
1621877415.2,286047004.1,Y
1621877435.1,286047000.4,P
1621877436.0,286047000.4,N
1621877455.8,286046999.7,N
1621877475.7,286046999.7,N
1621877495.5,286047000.0,N
1621877515.3,286046998.6,N
1621877535.2,286047000.4,N
1621877555.0,286047000.9,N
1621877555.9,286047000.9,N
1621877575.7,286047000.5,N
1621877595.6,286047002.6,Y
1621877615.4,286047002.7,P
1621877635.3,286047002.1,N
1621877655.1,286047003.9,P
1621877675.8,286047002.1,N
1621877695.7,286046999.8,N
1621877715.5,286047001.5,N
1621877735.4,286047001.8,N
1621877755.2,286047000.1,N
1621877775.0,286046998.5,N
1621877775.9,286046998.5,N
1621877795.8,286046999.7,N
1621877815.6,286047002.1,N
1621877835.5,286047002.8,N
1621877855.3,286046999.8,N
1621877875.1,286047000.6,N
1621877895.9,286047000.5,N
1621877915.7,286047000.0,N
1621877935.5,286047001.7,N
1621877955.4,286047001.8,N
1621877975.2,286046999.3,N
1621877995.1,286046997.1,N
1621877996.0,286046997.1,N
1621878015.8,286046998.4,N
1621878035.6,286046998.3,N
1621878055.5,286047000.0,N
1621878105.3,286047000.3,E
1621878115.3,286046998.1,N
1621878135.1,286046999.3,P
1621878155.8,286046999.9,N
1621878175.7,286047000.3,N
1621878195.5,286046999.2,N
1621878215.4,286046999.4,N
1621878235.2,286046999.0,N
1621878255.1,286046996.7,Y
1621878256.0,286046996.7,P
1621878275.8,286046997.3,N
1621878295.6,286046998.7,N
1621878315.5,286046998.9,N
1621878335.3,286047000.5,N
1621878355.1,286047000.3,N
1621878375.9,286046998.6,N
1621878395.7,286047000.2,N
1621878415.6,286047001.2,N
1621878435.4,286047000.4,N
1621878455.3,286046996.8,N
1621878475.1,286046998.9,N
1621878476.0,286046998.9,N
1621878495.8,286046999.4,N
1621878515.7,286046999.7,N
1621878535.5,286046997.5,N
1621878555.4,286046998.0,N
1621878575.2,286046996.6,N
1621878595.0,286046996.7,N
1621878595.9,286046996.7,N
1621878615.8,286046995.5,Y
1621878635.6,286046995.4,P
1621878655.5,286046997.1,N
1621878675.3,286046996.5,N
1621878695.1,286046999.1,N
1621878715.9,286046996.8,N
1621878735.7,286046995.4,Y
1621878755.6,286046999.4,P
1621878775.4,286046998.5,N
1621878795.2,286046999.5,N
1621878815.1,286047001.1,N
1621878816.0,286047001.1,N
1621878835.8,286047000.1,N
1621878855.7,286047000.5,N
1621878875.5,286046998.5,N
1621878895.3,286047000.2,N
1621878915.2,286046998.3,N
1621878935.0,286046996.6,N
1621878935.9,286046996.6,N
1621878955.8,286046996.6,N
1621878975.6,286046996.5,N
1621878995.4,286046999.1,N
1621879015.3,286046999.1,N
1621879035.1,286046996.6,N
1621879055.8,286046997.8,N
1621879075.7,286046997.5,N
1621879095.5,286046997.3,N
1621879115.4,286046996.7,N
1621879135.2,286047000.0,N
1621879155.0,286047001.8,N
1621879155.9,286047001.8,N
1621879175.8,286047000.6,N
1621879195.6,286047001.0,N
